User: anonymous   Login
Location: Pine Mountain Observatory
(43.7910°N, 120.9377°W)
Time: 23:33:40
(UTC-07:00)
Language:

Cosmos 1076 Rocket - Orbit

View from above orbital plane
View from above orbital plane
View from above satellite
View from above satellite

Ground track
Ground track

The orbit data is extracted from the following two-line orbital elements,

1 11267U 79011B   15188.12898183  .00000356  00000-0  35407-4 0  9995
2 11267 082.5242 180.6719 0018605 075.5139 284.8141 14.88591039969677
Epoch (UTC): 07 July 2015 03:05:44
Eccentricity: 0.0018605
inclination: 82.5242°
perigee height: 589 km
apogee height: 615 km
right ascension of ascending node: 180.6719°
argument of perigee: 75.5139°
revolutions per day: 14.88591039
mean anomaly at epoch: 284.8141°
orbit number at epoch: 96967

The dashed part of the orbit path shows where the satellite is in the earth's shadow,  

DLR